{"data":{"norad_id":65636,"intl_designator":"2025-210Q","name":"STARLINK-35209","alt_names":[],"object_type":"PAYLOAD","status":"ACTIVE","operator":null,"country":"US","launch_date":"2025-09-18","launch_site_code":"AFETR","launch_vehicle":null,"mission":null,"orbit_class":"UNKNOWN","rcs_meters":null,"size_class":null,"mass_kg":null,"dimensions":null,"purposes":["comms"],"wikipedia_slug":null,"has_3d_model":false,"image_url":null,"decayed_at":null,"tle_current":{"epoch":"2026-09-20T21:02:41.562816Z","epoch_age_seconds":76173,"freshness":"FRESH","line1":"1 65636U 25210Q   26263.87686994  .00019708  00000+0  59280-3 0  9993","line2":"2 65636  53.1539 116.3068 0001782 289.4409  70.6401 15.34404696 57678","mean_motion":15.34404696,"eccentricity":0.0001782,"inclination_deg":53.1539,"raan_deg":116.3068,"arg_perigee_deg":289.4409,"mean_anomaly_deg":70.6401,"bstar":0.0005928,"rev_number":5767,"period_min":93.847470863058,"perigee_km":461.47024749748,"apogee_km":463.90831798465,"semimajor_km":6840.8262827411,"source":"CELESTRAK","updated_at":"2026-09-21T09:00:35.675434Z"}}}